Regional Weather Roundup
Issued by NWS Glasgow, MT

Home | Current Version | Previous Version | Text Only | Print | Product List | Glossary On
Versions: 1 2 3 4 5 6 7 8 9 10 11 12 13 14 15 16 17 18 19 20 21 22 23 24 25 26 27 28 29 30 31 32 33 34 35 36 37 38 39 40 41 42 43 44 45 46 47 48 49
000
ASUS45 KGGW 041015
RWRGGW
HOURLY REGIONAL WEATHER ROUNDUP FOR NORTHEAST MONTANA
NATIONAL WEATHER SERVICE GLASGOW MONTANA
400 AM MDT SAT JUL 04 2015

NOTE: "FAIR" INDICATES FEW OR NO CLOUDS BELOW 12,000 FEET WITH NO
SIGNIFICANT WEATHER AND/OR OBSTRUCTIONS TO VISISBILITY.

NORTHEAST MONTANA


CITY           SKY/WX    TMP DP  RH WIND       PRES   REMARKS
GLASGOW        CLEAR     65  55  70 E10       29.73F
PLENTYWOOD       N/A     66  62  87 S3          N/A
WOLF POINT     CLEAR     62  59  90 NE7       29.75F FOG
JORDAN           N/A     59  50  72 CALM      29.78S
WINNETT          N/A     59  49  69 SW1         N/A
SIDNEY         CLEAR     63  57  82 S3        29.78F
GLENDIVE       CLEAR     64  57  77 CALM      29.81S
MALTA            N/A     67  51  56 W3G14       N/A

FORT PECK REPORTS


CITY           SKY/WX    TMP DP  RH WIND       PRES   REMARKS
FORT PECK        N/A     73  59  61 E12         N/A
THE PINES        N/A     70  57  63 SE3         N/A

SOUTHEAST MONTANA


CITY           SKY/WX    TMP DP  RH WIND       PRES   REMARKS
BILLINGS       CLEAR     69  53  56 SW8       29.85S
MILES CITY     CLEAR     65  60  84 NE3       29.79F
BAKER          PTCLDY    62  57  83 E8        29.85S
LIVINGSTON     CLEAR     54  45  71 CALM      29.94R

CENTRAL MONTANA


CITY           SKY/WX    TMP DP  RH WIND       PRES   REMARKS
HAVRE          CLEAR     58  47  66 SW3       29.73S
LEWISTOWN      CLEAR     61  50  67 S8        29.86S
GREAT FALLS    CLEAR     60  46  59 SW9       29.83S
CUT BANK       CLEAR     59  43  55 SW6       29.83F
HELENA         CLEAR     68  41  37 CALM      29.90R
BUTTE          CLEAR     52  38  58 CALM      30.04S
BOZEMAN        CLEAR     54  46  74 SE8       29.94R

WESTERN MONTANA


CITY           SKY/WX    TMP DP  RH WIND       PRES   REMARKS
MISSOULA       CLEAR     62  45  53 CALM      29.89S
KALISPELL      NOT AVBL

NORTH DAKOTA


CITY           SKY/WX    TMP DP  RH WIND       PRES   REMARKS
WILLISTON      CLEAR     70  61  73 S3        29.79F HAZE
DICKINSON      PTCLDY    63  59  87 S8        29.83F FOG
MINOT          CLEAR     63  60  90 CALM      29.80F FOG
BISMARCK       PTCLDY    64  63  96 E6        29.86S FOG

SOUTHERN SASKATCHEWAN


CITY           SKY/WX    TMP DP  RH WIND       PRES   REMARKS
REGINA         CLOUDY    64  64 100 E9        29.76F
ESTEVAN        CLEAR     64  63  94 S7        29.77F
SWIFT CURRENT  MOCLDY    61  52  72 S9        29.71F




USA.gov is the U.S. government's official web portal to all federal, state and local government web resources and services.